[[{"header":{"parameterUnit":"m.s-1","parameterCategory":1,"la1":30.2991,"la2":30.254,"lo1":-89.0895,"lo2":-89.0444,"dy":0.0017,"dx":0.0017,"nx":28,"ny":28,"refTime":"2023-09-02T03:00:00:Z","depth":0,"parameterNumber":2,"parameterNumberName":"U-component_of_WINDS"},"data":[0,0,0,0,0,0,0,0,0,0,0,0,0,0,0,0,0,0,0,0,0,0,0,0,0,0,0,0,0,0,0,0,0,0,0,0,0,0,0,0,0,0,0,0,0,0,0,0,0,0,0,0,0,0,0,0,0,0,-1.2668,-1.2668,0,-1.2692,-1.2692,-1.2692,-1.2701,-1.2701,-1.2701,-1.2701,-1.2725,-1.2726,-1.2727,0,0,0,0,0,0,0,0,0,0,0,0,0,-1.2628,-1.2629,-1.2668,-1.2668,-1.2668,-1.2692,-1.2692,-1.2693,-1.2701,-1.2701,-1.2701,-1.2701,-1.2725,-1.2726,-1.2727,0,0,0,0,0,0,0,0,0,0,0,0,0,-1.2648,-1.2629,-1.2668,-1.2675,-1.2676,-1.2692,-1.2692,-1.2693,-1.2701,-1.2701,-1.2701,-1.2701,-1.2725,-1.2726,-1.2727,-1.2736,0,0,-1.273,-1.2731,0,0,0,0,0,0,0,0,-1.2647,-1.2649,-1.2674,-1.2675,-1.2676,-1.2693,-1.2687,-1.2707,-1.2701,-1.2692,-1.2701,-1.2701,-1.2715,-1.2717,-1.2721,-1.2737,-1.2738,-1.273,-1.2731,-1.2731,-1.2732,0,0,0,0,0,0,0,-1.2645,-1.2648,-1.2677,-1.2674,-1.2676,-1.2677,-1.268,-1.2691,-1.2704,-1.2693,-1.2693,-1.2696,-1.2715,-1.272,-1.2722,-1.2739,-1.273,-1.2731,-1.2732,-1.2732,-1.2763,-1.2763,0,0,0,0,0,0,-1.2643,-1.2647,-1.2676,-1.2678,-1.2661,-1.2678,-1.2681,-1.2688,-1.2704,-1.2706,-1.2696,-1.2696,-1.2719,-1.2721,-1.2723,-1.2735,-1.2731,-1.2732,-1.2733,-1.2763,-1.2763,-1.2763,0,0,0,0,0,0,-1.2642,-1.2645,-1.2675,-1.2663,-1.2667,-1.2679,-1.2686,-1.2688,-1.2694,-1.2706,-1.2708,-1.2699,-1.2719,-1.2721,-1.2733,-1.2736,-1.2733,-1.2734,-1.2762,-1.2763,-1.2763,-1.2758,0,0,0,0,0,0,-1.2641,-1.2645,-1.2649,-1.2663,-1.2667,-1.2685,-1.2687,-1.2689,-1.2696,-1.2696,-1.271,-1.2712,-1.2719,-1.2731,-1.2734,-1.2737,-1.2735,-1.2762,-1.2762,-1.2763,-1.2758,-1.2758,-1.2758,0,0,0,0,0,-1.2639,-1.2647,-1.2649,-1.2653,-1.2673,-1.2685,-1.2688,-1.2696,-1.2696,-1.27,-1.2708,-1.2711,-1.2735,-1.2732,-1.2735,-1.2739,-1.2762,-1.2762,-1.2763,-1.2758,-1.2758,-1.2758,0,0,0,0,0,0,-1.2633,-1.2649,-1.2652,-1.2664,-1.2673,-1.2687,-1.2692,-1.2696,-1.2705,-1.2705,-1.2715,-1.2718,-1.2728,-1.2735,-1.2731,-1.2748,-1.2749,-1.275,-1.2744,-1.2744,-1.2744,-1.2742,-1.2736,0,0,0,0,0,-1.2633,-1.2642,-1.2655,-1.2665,-1.2669,-1.268,-1.2686,-1.2691,-1.2701,-1.2705,-1.2714,-1.2723,-1.2733,-1.2739,-1.2748,-1.2759,-1.2762,-1.2763,-1.2763,-1.2763,-1.2764,-1.2769,-1.277,-1.2764,-1.2764,-1.2764,0,0,-1.2633,-1.2643,-1.2648,-1.2664,-1.2672,-1.2681,-1.2683,-1.2693,-1.2699,-1.2706,-1.2718,-1.2724,-1.2735,-1.2746,-1.2751,-1.2752,-1.2766,-1.2763,-1.2763,-1.2764,-1.277,-1.277,-1.2771,-1.2764,-1.2764,-1.2764,0,0,-1.2638,-1.2646,-1.2655,-1.2663,-1.2675,-1.2681,-1.2683,-1.2696,-1.2701,-1.2712,-1.2718,-1.2725,-1.2742,-1.2749,-1.2755,-1.2762,-1.2765,-1.2764,-1.2765,-1.277,-1.2771,-1.2771,-1.2774,-1.2774,-1.2765,-1.2765,-1.2765,0,-1.2637,-1.2651,-1.2659,-1.2668,-1.2674,-1.2681,-1.2689,-1.2697,-1.2711,-1.2715,-1.2715,-1.2735,-1.2743,-1.2756,-1.2757,-1.2762,-1.2764,-1.2763,-1.277,-1.2771,-1.2771,-1.2773,-1.2774,-1.2765,-1.2765,-1.2765,-1.2765,0,-1.2648,-1.2658,-1.2663,-1.2677,-1.2684,-1.2693,-1.2702,-1.2708,-1.2712,-1.2719,-1.273,-1.2739,-1.2751,-1.2754,-1.2758,-1.2767,-1.2767,-1.2768,-1.2769,-1.2772,-1.2774,-1.2775,-1.2765,-1.2765,-1.2765,-1.2765,0,0,-1.2651,-1.2668,-1.267,-1.2676,-1.2689,-1.2696,-1.2705,-1.2716,-1.2721,-1.273,-1.2738,-1.2751,-1.2752,-1.2759,-1.2764,-1.2769,-1.2773,-1.277,-1.277,-1.277,-1.2783,-1.2781,-1.2782,-1.2775,-1.2775,-1.2776,-1.2782,0,-1.2658,-1.2674,-1.2681,-1.2694,-1.2702,-1.2708,-1.2715,-1.2724,-1.273,-1.2738,-1.2745,-1.2754,-1.2755,-1.2759,-1.2764,-1.2771,-1.2776,-1.2771,-1.2782,-1.2782,-1.2779,-1.2783,-1.2782,-1.2788,-1.2783,-1.2783,-1.2783,0,-1.2668,-1.2677,-1.2691,-1.2702,-1.2706,-1.2713,-1.2723,-1.273,-1.274,-1.2744,-1.2751,-1.2756,-1.2765,-1.2764,-1.2776,-1.2773,-1.2778,-1.2782,-1.2782,-1.2784,-1.2783,-1.2785,-1.279,-1.279,-1.2784,-1.2784,-1.2784,0,-1.2668,-1.2684,-1.2694,-1.2699,-1.2712,-1.2717,-1.2723,-1.2732,-1.2738,-1.2747,-1.275,-1.276,-1.2765,-1.2773,-1.278,-1.2779,-1.2791,-1.2791,-1.2794,-1.2794,-1.2797,-1.2797,-1.2802,-1.28,-1.28,-1.28,-1.28,0,-1.2675,-1.2683,-1.2694,-1.27,-1.2709,-1.2717,-1.2725,-1.2732,-1.274,-1.2747,-1.2752,-1.2759,-1.2768,-1.2775,-1.2781,-1.279,-1.2792,-1.2796,-1.2797,-1.2795,-1.2795,-1.2799,-1.2798,-1.28,-1.28,-1.28,-1.28,0,-1.2677,-1.2685,-1.2696,-1.2708,-1.2711,-1.2717,-1.2727,-1.2733,-1.2739,-1.2748,-1.275,-1.276,-1.2769,-1.2776,-1.2788,-1.2792,-1.2801,-1.2803,-1.2798,-1.2799,-1.2802,-1.2801,-1.281,-1.2812,-1.2808,-1.2808,-1.2808,0,-1.2681,-1.2687,-1.2699,-1.2705,-1.271,-1.2719,-1.2725,-1.2732,-1.2738,-1.2749,-1.2753,-1.2763,-1.2771,-1.2785,-1.2793,-1.2802,-1.2804,-1.2806,-1.2805,-1.2803,-1.2804,-1.2803,-1.2804,-1.2806,-1.2806,-1.2806,-1.2806,0,-1.2687,-1.2691,-1.2699,-1.2708,-1.2715,-1.2723,-1.2731,-1.2735,-1.2744,-1.275,-1.2759,-1.2765,-1.2777,-1.2787,-1.2796,-1.2802,-1.2805,-1.2806,-1.2808,-1.2806,-1.2803,-1.2804,-1.2798,-1.2806,-1.2806,-1.2806,-1.2806,-1.2806,-1.2691,-1.2696,-1.2705,-1.2714,-1.2721,-1.2728,-1.2734,-1.2741,-1.2749,-1.2759,-1.2763,-1.2772,-1.2781,-1.2794,-1.28,-1.2807,-1.2807,-1.2809,-1.281,-1.281,-1.281,-1.2801,-1.2809,-1.2809,-1.2809,-1.2809,-1.2809,0,-1.2697,-1.2703,-1.2711,-1.2722,-1.2729,-1.2731,-1.274,-1.2745,-1.2754,-1.2761,-1.2769,-1.2779,-1.2788,-1.2796,-1.2805,-1.2809,-1.2811,-1.2811,-1.2811,-1.2812,-1.2809,-1.2807,-1.281,-1.281,-1.281,-1.281,-1.281,-1.281,-1.2701,-1.2711,-1.2715,-1.2728,-1.2733,-1.2743,-1.2747,-1.2754,-1.276,-1.2771,-1.2778,-1.2784,-1.2791,-1.2801,-1.2809,-1.2811,-1.2814,-1.2814,-1.2816,-1.2813,-1.2813,-1.2812,-1.2811,-1.2814,-1.2814,-1.2819,-1.2819,-1.2819]},{"header":{"parameterUnit":"m.s-1","parameterCategory":1,"la1":30.2991,"la2":30.254,"lo1":-89.0895,"lo2":-89.0444,"dy":0.0017,"dx":0.0017,"nx":28,"ny":28,"refTime":"2023-09-02T03:00:00:Z","depth":0,"parameterNumber":3,"parameterNumberName":"V-component_of_WINDS"},"data":[0,0,0,0,0,0,0,0,0,0,0,0,0,0,0,0,0,0,0,0,0,0,0,0,0,0,0,0,0,0,0,0,0,0,0,0,0,0,0,0,0,0,0,0,0,0,0,0,0,0,0,0,0,0,0,0,0,0,2.2451,2.2453,0,2.2548,2.2549,2.255,2.2525,2.2523,2.2521,2.2519,2.2614,2.2618,2.2622,0,0,0,0,0,0,0,0,0,0,0,0,0,2.2241,2.2245,2.2451,2.2453,2.2454,2.2548,2.2549,2.255,2.2525,2.2523,2.252,2.2518,2.2612,2.2618,2.2623,0,0,0,0,0,0,0,0,0,0,0,0,0,2.2334,2.2246,2.2451,2.2453,2.2454,2.2547,2.2549,2.2551,2.2526,2.2523,2.252,2.2517,2.2611,2.2617,2.2623,2.272,0,0,2.2643,2.2646,0,0,0,0,0,0,0,0,2.2329,2.2342,2.2451,2.2453,2.2454,2.2521,2.2509,2.2607,2.2526,2.2498,2.2519,2.2516,2.2585,2.2594,2.2618,2.2725,2.2729,2.2644,2.2648,2.265,2.2652,0,0,0,0,0,0,0,2.2322,2.2337,2.2489,2.2453,2.2455,2.2447,2.2457,2.2528,2.2556,2.25,2.2499,2.2511,2.2585,2.2612,2.262,2.273,2.2644,2.2649,2.2653,2.2656,2.2919,2.2922,0,0,0,0,0,0,2.2315,2.2332,2.2486,2.2492,2.2383,2.2453,2.2464,2.2503,2.2556,2.2561,2.2513,2.2509,2.2602,2.2612,2.2623,2.2738,2.265,2.2656,2.266,2.2916,2.292,2.2923,0,0,0,0,0,0,2.2311,2.2329,2.2482,2.2412,2.2431,2.246,2.2503,2.2506,2.2532,2.2565,2.257,2.2535,2.26,2.2614,2.2696,2.2741,2.2659,2.2665,2.2912,2.2917,2.2921,2.2971,0,0,0,0,0,0,2.2305,2.2328,2.2366,2.2413,2.2435,2.2556,2.2506,2.251,2.2544,2.254,2.2587,2.2592,2.2599,2.2687,2.2702,2.2749,2.267,2.2908,2.2914,2.292,2.2965,2.2977,2.2986,0,0,0,0,0,2.2298,2.2376,2.2368,2.2387,2.2484,2.2558,2.257,2.2578,2.2548,2.2586,2.2606,2.259,2.2734,2.2695,2.2713,2.2762,2.2905,2.2913,2.2919,2.2961,2.2974,2.2986,0,0,0,0,0,0,2.2333,2.2382,2.2374,2.2471,2.2511,2.2554,2.2602,2.2593,2.2641,2.2635,2.2641,2.2652,2.2736,2.2757,2.2713,2.2857,2.2815,2.2826,2.284,2.2854,2.2864,2.2857,2.2676,0,0,0,0,0,2.2352,2.241,2.245,2.253,2.2551,2.2573,2.2606,2.2608,2.2649,2.2666,2.2693,2.2732,2.2786,2.2821,2.2872,2.2968,2.2977,2.3011,2.3021,2.303,2.3039,2.3089,2.3104,2.2946,2.2946,2.2946,0,0,2.2392,2.2426,2.2462,2.2538,2.257,2.2628,2.2588,2.2651,2.2694,2.2675,2.2754,2.2775,2.2819,2.2908,2.2949,2.2929,2.3084,2.3039,2.3045,2.305,2.3098,2.3112,2.3126,2.2951,2.295,2.2949,0,0,2.2494,2.2527,2.2597,2.2629,2.2677,2.2691,2.2708,2.2753,2.2766,2.2846,2.2833,2.2882,2.2976,2.3007,2.3035,2.3148,2.3134,2.3164,2.3219,2.3268,2.328,2.3291,2.333,2.3344,2.3173,2.3173,2.3173,0,2.2537,2.2626,2.2634,2.2698,2.2731,2.2718,2.2788,2.2818,2.288,2.2902,2.2879,2.2995,2.3024,2.3119,2.3146,2.317,2.3188,2.3158,2.3278,2.3289,2.3299,2.3336,2.3351,2.3177,2.3176,2.3176,2.3176,0,2.2675,2.2737,2.2787,2.2848,2.2887,2.2954,2.297,2.3008,2.3007,2.3023,2.3103,2.3137,2.3194,2.3217,2.3217,2.3312,2.3298,2.3277,2.3234,2.3318,2.3352,2.3366,2.3181,2.318,2.3179,2.3178,0,0,2.2802,2.2866,2.2885,2.2911,2.2963,2.301,2.3075,2.3132,2.3164,2.3207,2.326,2.3339,2.3319,2.3351,2.3353,2.3397,2.3481,2.337,2.3371,2.3388,2.3586,2.3601,2.3617,2.3473,2.3476,2.3478,2.3582,0,2.2908,2.3025,2.3033,2.3137,2.3193,2.3181,2.3237,2.3274,2.329,2.3338,2.3356,2.3411,2.3381,2.34,2.3443,2.3462,2.3521,2.3455,2.3521,2.3523,2.3509,2.3636,2.3652,2.3749,2.3596,2.3598,2.36,0,2.3047,2.3094,2.3204,2.3247,2.327,2.3321,2.3373,2.342,2.3461,2.3469,2.3505,2.3501,2.3566,2.3522,2.361,2.3565,2.3593,2.3606,2.361,2.3615,2.3566,2.3643,2.378,2.3794,2.3621,2.362,2.3618,0,2.3126,2.3218,2.3295,2.3319,2.337,2.3406,2.3429,2.3467,2.35,2.3545,2.3566,2.3618,2.3646,2.3685,2.3694,2.3662,2.3782,2.3739,2.3789,2.3789,2.3815,2.3813,2.3956,2.3835,2.3834,2.3834,2.3834,0,2.3242,2.331,2.3331,2.3379,2.3453,2.3462,2.3535,2.3555,2.3589,2.3638,2.3631,2.3677,2.3688,2.3736,2.3743,2.3814,2.3827,2.3835,2.3836,2.3835,2.3834,2.3852,2.3845,2.3838,2.3837,2.3836,2.3836,0,2.3343,2.3361,2.3444,2.3486,2.3498,2.3551,2.3586,2.3631,2.3646,2.3709,2.3724,2.3747,2.3803,2.3817,2.3884,2.3888,2.3972,2.3967,2.3959,2.3958,2.4007,2.4002,2.4167,2.4188,2.4053,2.4054,2.4056,0,2.3416,2.3467,2.3515,2.3548,2.3573,2.3627,2.3661,2.367,2.3705,2.3755,2.3793,2.3848,2.3893,2.3983,2.4005,2.4055,2.405,2.4105,2.4058,2.4055,2.4049,2.4046,2.405,2.4113,2.4115,2.4116,2.4117,0,2.3542,2.3548,2.3597,2.365,2.3691,2.3733,2.3772,2.3799,2.3814,2.3854,2.3912,2.3946,2.4014,2.4069,2.4119,2.4141,2.4131,2.4132,2.4146,2.4145,2.4137,2.414,2.3982,2.4128,2.4126,2.4126,2.4125,2.4125,2.363,2.3674,2.3715,2.377,2.3801,2.3838,2.3881,2.3902,2.3951,2.4007,2.401,2.4072,2.4109,2.4176,2.4201,2.4249,2.4232,2.4253,2.4257,2.4262,2.4266,2.413,2.4258,2.4258,2.4257,2.4257,2.4257,0,2.3754,2.3779,2.383,2.3886,2.3929,2.3917,2.396,2.3996,2.4051,2.4088,2.4132,2.4197,2.425,2.4275,2.4327,2.436,2.4356,2.4373,2.437,2.4375,2.4279,2.4261,2.4375,2.4375,2.4375,2.4375,2.4375,2.4375,2.3824,2.3898,2.3908,2.3997,2.4022,2.4084,2.4109,2.4142,2.4171,2.4245,2.4289,2.4305,2.4337,2.439,2.4437,2.4443,2.4462,2.4481,2.4484,2.4394,2.4382,2.437,2.4353,2.4485,2.4485,2.4576,2.4577,2.4577]}]]